| time (UTC) | temp F | wind direction | speed MPH | gust MPH | rain 1hr in | rain 24hr in | rain mn in | humidity % | barometer mb |
| 20260504022226 | 41 | 11 | 0.0 | 0.0 | 0.00 | 0.00 | 0.00 | 82 | 1016.6 |
| 20260504021724 | 41 | 10 | 0.0 | 0.0 | 0.00 | 0.00 | 0.00 | 82 | 1016.4 |
| 20260504021221 | 42 | 10 | 0.0 | 0.0 | 0.00 | 0.00 | 0.00 | 81 | 1016.5 |
| 20260504020717 | 42 | 10 | 0.0 | 0.0 | 0.00 | 0.00 | 0.00 | 78 | 1016.4 |
| 20260504020214 | 43 | 10 | 0.0 | 0.0 | 0.00 | 0.00 | 0.00 | 76 | 1016.3 |
| 20260504015710 | 44 | 11 | 0.0 | 0.0 | 0.00 | 0.00 | 0.00 | 74 | 1016.5 |
| 20260504015206 | 44 | 5 | 0.0 | 0.0 | 0.00 | 0.00 | 0.00 | 71 | 1016.5 |
| 20260504014702 | 44 | 3 | 0.0 | 0.0 | 0.00 | 0.00 | 0.00 | 70 | 1016.5 |
| 20260504014159 | 44 | 3 | 0.0 | 0.0 | 0.00 | 0.00 | 0.00 | 69 | 1016.3 |
| 20260504013657 | 45 | 3 | 0.0 | 0.0 | 0.00 | 0.00 | 0.00 | 68 | 1016.3 |
| 20260504013154 | 45 | 3 | 0.0 | 0.0 | 0.00 | 0.00 | 0.00 | 67 | 1016.3 |
| 20260504012651 | 45 | 1 | 0.0 | 0.0 | 0.00 | 0.00 | 0.00 | 69 | 1016.2 |
| 20260504012149 | 46 | 0 | 0.0 | 0.0 | 0.00 | 0.00 | 0.00 | 67 | 1016.1 |
| 20260504011646 | 46 | 0 | 0.0 | 0.0 | 0.00 | 0.00 | 0.00 | 65 | 1016.2 |
| 20260504011142 | 47 | 0 | 0.0 | 0.0 | 0.00 | 0.00 | 0.00 | 61 | 1016.3 |
| 20260504010638 | 48 | 0 | 0.0 | 0.0 | 0.00 | 0.00 | 0.00 | 60 | 1016.2 |
| 20260504010134 | 49 | 0 | 0.0 | 0.0 | 0.00 | 0.00 | 0.00 | 58 | 1016.2 |
| 20260504005631 | 50 | 354 | 0.0 | 0.0 | 0.00 | 0.00 | 0.00 | 58 | 1016.2 |
| 20260504005128 | 50 | 333 | 0.0 | 0.0 | 0.00 | 0.00 | 0.00 | 55 | 1016.3 |
| 20260504004626 | 51 | 351 | 0.0 | 0.0 | 0.00 | 0.00 | 0.00 | 52 | 1016.2 |
| 20260504004123 | 52 | 192 | 1.0 | 2.0 | 0.00 | 0.00 | 0.00 | 49 | 1016.1 |
| 20260504003619 | 52 | 168 | 2.0 | 2.0 | 0.00 | 0.00 | 0.00 | 49 | 1015.8 |
| 20260504003115 | 52 | 206 | 1.0 | 1.0 | 0.00 | 0.00 | 0.00 | 49 | 1016.1 |
| 20260504002613 | 52 | 210 | 1.0 | 2.0 | 0.00 | 0.00 | 0.00 | 48 | 1016.1 |
| 20260504002110 | 52 | 293 | 0.0 | 0.0 | 0.00 | 0.00 | 0.00 | 49 | 1016.2 |
| 20260504001608 | 53 | 340 | 0.0 | 0.0 | 0.00 | 0.00 | 0.00 | 49 | 1016.1 |
| 20260504001103 | 53 | 182 | 0.0 | 0.0 | 0.00 | 0.00 | 0.00 | 46 | 1016.1 |
| 20260504000601 | 54 | 206 | 1.0 | 2.0 | 0.00 | 0.00 | 0.00 | 46 | 1016.1 |
| 20260504000058 | 54 | 216 | 2.0 | 2.0 | 0.00 | 0.00 | 0.00 | 45 | 1015.8 |
| 20260503235556 | 54 | 194 | 2.0 | 2.0 | 0.00 | 0.00 | 0.00 | 45 | 1016.0 |
| 20260503235053 | 55 | 184 | 6.0 | 8.0 | 0.00 | 0.00 | 0.00 | 42 | 1016.1 |
| 20260503234551 | 55 | 190 | 5.0 | 6.0 | 0.00 | 0.00 | 0.00 | 42 | 1016.0 |
| 20260503234049 | 55 | 205 | 3.0 | 3.0 | 0.00 | 0.00 | 0.00 | 42 | 1015.9 |
| 20260503233545 | 56 | 191 | 2.0 | 2.0 | 0.00 | 0.00 | 0.00 | 43 | 1015.9 |
| 20260503233041 | 56 | 283 | 1.0 | 1.0 | 0.00 | 0.00 | 0.00 | 42 | 1016.0 |
| 20260503232538 | 56 | 184 | 3.0 | 3.0 | 0.00 | 0.00 | 0.00 | 40 | 1015.9 |
| 20260503232036 | 56 | 192 | 3.0 | 3.0 | 0.00 | 0.00 | 0.00 | 40 | 1016.1 |
| 20260503231533 | 56 | 208 | 7.0 | 9.0 | 0.00 | 0.00 | 0.00 | 40 | 1015.8 |
| 20260503231030 | 56 | 182 | 6.0 | 7.0 | 0.00 | 0.00 | 0.00 | 41 | 1016.0 |
| 20260503230526 | 56 | 224 | 7.0 | 9.0 | 0.00 | 0.00 | 0.00 | 39 | 1015.9 |
| 20260503230024 | 57 | 199 | 4.0 | 4.0 | 0.00 | 0.00 | 0.00 | 41 | 1015.9 |
| 20260503225521 | 57 | 180 | 4.0 | 4.0 | 0.00 | 0.00 | 0.00 | 40 | 1015.9 |
| 20260503225016 | 57 | 214 | 3.0 | 3.0 | 0.00 | 0.00 | 0.00 | 39 | 1016.2 |
| 20260503224514 | 57 | 198 | 4.0 | 4.0 | 0.00 | 0.00 | 0.00 | 39 | 1016.0 |
| 20260503224011 | 57 | 201 | 3.0 | 3.0 | 0.00 | 0.00 | 0.00 | 41 | 1016.1 |
| 20260503223509 | 57 | 173 | 4.0 | 6.0 | 0.00 | 0.00 | 0.00 | 40 | 1016.1 |
| 20260503223004 | 57 | 183 | 6.0 | 8.0 | 0.00 | 0.00 | 0.00 | 39 | 1016.1 |
| 20260503222503 | 57 | 179 | 4.0 | 6.0 | 0.00 | 0.00 | 0.00 | 42 | 1016.0 |
| 20260503222000 | 57 | 228 | 3.0 | 4.0 | 0.00 | 0.00 | 0.00 | 40 | 1016.2 |
| 20260503221459 | 58 | 188 | 4.0 | 4.0 | 0.00 | 0.00 | 0.00 | 39 | 1016.1 |
| 20260503220955 | 57 | 177 | 5.0 | 6.0 | 0.00 | 0.00 | 0.00 | 38 | 1016.0 |
| 20260503220451 | 57 | 241 | 3.0 | 3.0 | 0.00 | 0.00 | 0.00 | 40 | 1016.3 |
| 20260503215949 | 58 | 231 | 6.0 | 7.0 | 0.00 | 0.00 | 0.00 | 36 | 1016.1 |
| 20260503215445 | 59 | 184 | 10.0 | 11.0 | 0.00 | 0.00 | 0.00 | 37 | 1015.9 |
| 20260503214943 | 59 | 325 | 1.0 | 2.0 | 0.00 | 0.00 | 0.00 | 36 | 1016.0 |
| 20260503214441 | 59 | 203 | 7.0 | 8.0 | 0.00 | 0.00 | 0.00 | 38 | 1016.0 |
| 20260503213937 | 59 | 189 | 5.0 | 6.0 | 0.00 | 0.00 | 0.00 | 39 | 1016.0 |
| 20260503213436 | 57 | 189 | 6.0 | 7.0 | 0.00 | 0.00 | 0.00 | 38 | 1015.9 |
| 20260503212932 | 58 | 263 | 2.0 | 3.0 | 0.00 | 0.00 | 0.00 | 37 | 1016.1 |
| 20260503212430 | 59 | 9 | 2.0 | 3.0 | 0.00 | 0.00 | 0.00 | 35 | 1016.1 |
| 20260503211927 | 57 | 214 | 1.0 | 2.0 | 0.00 | 0.00 | 0.00 | 38 | 1016.0 |
| 20260503211424 | 57 | 88 | 2.0 | 3.0 | 0.00 | 0.00 | 0.00 | 36 | 1016.2 |
| 20260503210919 | 58 | 218 | 5.0 | 8.0 | 0.00 | 0.00 | 0.00 | 38 | 1016.2 |
| 20260503210416 | 59 | 201 | 2.0 | 3.0 | 0.00 | 0.00 | 0.00 | 34 | 1016.1 |
| 20260503205916 | 58 | 179 | 4.0 | 4.0 | 0.00 | 0.00 | 0.00 | 37 | 1016.1 |
| 20260503205414 | 58 | 226 | 3.0 | 4.0 | 0.00 | 0.00 | 0.00 | 39 | 1016.2 |
| 20260503204910 | 58 | 193 | 4.0 | 6.0 | 0.00 | 0.00 | 0.00 | 39 | 1016.4 |
| 20260503204408 | 59 | 328 | 2.0 | 3.0 | 0.00 | 0.00 | 0.00 | 35 | 1016.4 |
| 20260503203905 | 59 | 159 | 3.0 | 3.0 | 0.00 | 0.00 | 0.00 | 37 | 1016.3 |
| 20260503203402 | 57 | 299 | 2.0 | 3.0 | 0.00 | 0.00 | 0.00 | 37 | 1016.6 |
| 20260503202858 | 57 | 0 | 0.0 | 1.0 | 0.00 | 0.00 | 0.00 | 36 | 1016.3 |
| 20260503202357 | 58 | 282 | 2.0 | 2.0 | 0.00 | 0.00 | 0.00 | 36 | 1016.5 |
| 20260503201855 | 60 | 82 | 3.0 | 4.0 | 0.00 | 0.00 | 0.00 | 39 | 1016.5 |
| 20260503201351 | 57 | 224 | 5.0 | 6.0 | 0.00 | 0.00 | 0.00 | 39 | 1016.5 |
| 20260503200849 | 58 | 305 | 5.0 | 7.0 | 0.00 | 0.00 | 0.00 | 35 | 1016.5 |
| 20260503200344 | 59 | 44 | 1.0 | 2.0 | 0.00 | 0.00 | 0.00 | 39 | 1016.6 |
| 20260503195842 | 57 | 82 | 1.0 | 2.0 | 0.00 | 0.00 | 0.00 | 37 | 1016.6 |
| 20260503195338 | 57 | 177 | 4.0 | 4.0 | 0.00 | 0.00 | 0.00 | 37 | 1016.6 |
| 20260503194836 | 59 | 70 | 2.0 | 4.0 | 0.00 | 0.00 | 0.00 | 39 | 1017.0 |
| 20260503194332 | 58 | 92 | 3.0 | 4.0 | 0.00 | 0.00 | 0.00 | 36 | 1017.0 |
| 20260503193828 | 59 | 197 | 4.0 | 6.0 | 0.00 | 0.00 | 0.00 | 40 | 1017.0 |
| 20260503193324 | 58 | 238 | 7.0 | 8.0 | 0.00 | 0.00 | 0.00 | 37 | 1017.2 |
| 20260503192820 | 58 | 314 | 1.0 | 3.0 | 0.00 | 0.00 | 0.00 | 38 | 1017.0 |
| 20260503192315 | 58 | 160 | 4.0 | 6.0 | 0.00 | 0.00 | 0.00 | 40 | 1017.2 |
| 20260503191812 | 58 | 203 | 4.0 | 8.0 | 0.00 | 0.00 | 0.00 | 39 | 1017.3 |
| 20260503191309 | 58 | 103 | 2.0 | 2.0 | 0.00 | 0.00 | 0.00 | 41 | 1017.5 |
| 20260503190806 | 58 | 154 | 1.0 | 2.0 | 0.00 | 0.00 | 0.00 | 42 | 1017.5 |
| 20260503190303 | 57 | 192 | 7.0 | 8.0 | 0.00 | 0.00 | 0.00 | 41 | 1017.5 |
| 20260503185800 | 57 | 97 | 2.0 | 2.0 | 0.00 | 0.00 | 0.00 | 42 | 1017.3 |
| 20260503185256 | 58 | 225 | 1.0 | 3.0 | 0.00 | 0.00 | 0.00 | 41 | 1017.5 |
| 20260503184755 | 57 | 184 | 5.0 | 7.0 | 0.00 | 0.00 | 0.00 | 40 | 1017.8 |
| 20260503184252 | 58 | 226 | 9.0 | 11.0 | 0.00 | 0.00 | 0.00 | 39 | 1017.9 |
| 20260503183748 | 59 | 228 | 6.0 | 8.0 | 0.00 | 0.00 | 0.00 | 39 | 1017.6 |
| 20260503183246 | 58 | 171 | 3.0 | 4.0 | 0.00 | 0.00 | 0.00 | 42 | 1017.9 |
| 20260503182743 | 56 | 3 | 3.0 | 4.0 | 0.00 | 0.00 | 0.00 | 41 | 1018.2 |
| 20260503182242 | 58 | 214 | 4.0 | 4.0 | 0.00 | 0.00 | 0.00 | 39 | 1017.9 |
| 20260503181739 | 57 | 228 | 6.0 | 8.0 | 0.00 | 0.00 | 0.00 | 40 | 1018.1 |
| 20260503181236 | 56 | 5 | 2.0 | 2.0 | 0.00 | 0.00 | 0.00 | 42 | 1018.1 |
| 20260503180732 | 55 | 324 | 2.0 | 3.0 | 0.00 | 0.00 | 0.00 | 39 | 1018.3 |
| 20260503180230 | 57 | 205 | 5.0 | 6.0 | 0.00 | 0.00 | 0.00 | 37 | 1018.3 |
| 20260503175726 | 56 | 99 | 4.0 | 6.0 | 0.00 | 0.00 | 0.00 | 38 | 1018.4 |
| 20260503175225 | 55 | 195 | 5.0 | 6.0 | 0.00 | 0.00 | 0.00 | 42 | 1018.4 |
| 20260503174720 | 55 | 154 | 3.0 | 6.0 | 0.00 | 0.00 | 0.00 | 40 | 1018.4 |
| 20260503174219 | 56 | 150 | 1.0 | 3.0 | 0.00 | 0.00 | 0.00 | 39 | 1018.5 |
| 20260503173713 | 56 | 160 | 4.0 | 4.0 | 0.00 | 0.00 | 0.00 | 43 | 1018.5 |
| 20260503173210 | 56 | 190 | 3.0 | 3.0 | 0.00 | 0.00 | 0.00 | 41 | 1018.5 |
| 20260503172707 | 56 | 123 | 2.0 | 3.0 | 0.00 | 0.00 | 0.00 | 40 | 1018.5 |
| 20260503172204 | 55 | 276 | 6.0 | 8.0 | 0.00 | 0.00 | 0.00 | 39 | 1018.6 |
| 20260503171700 | 55 | 145 | 5.0 | 6.0 | 0.00 | 0.00 | 0.00 | 42 | 1018.6 |
| 20260503171158 | 55 | 12 | 3.0 | 4.0 | 0.00 | 0.00 | 0.00 | 37 | 1018.7 |
| 20260503170654 | 55 | 25 | 4.0 | 7.0 | 0.00 | 0.00 | 0.00 | 40 | 1018.6 |
| 20260503170151 | 56 | 103 | 1.0 | 2.0 | 0.00 | 0.00 | 0.00 | 43 | 1018.8 |
| 20260503160113 | 53 | 181 | 7.0 | 8.0 | 0.00 | 0.00 | 0.00 | 40 | 1019.3 |
| 20260503150543 | 50 | 184 | 5.0 | 7.0 | 0.00 | 0.00 | 0.00 | 46 | 1019.6 |
| 20260503130932 | 46 | 220 | 3.0 | 4.0 | 0.00 | 0.00 | 0.00 | 65 | 1019.9 |
| 20260503130430 | 44 | 190 | 6.0 | 7.0 | 0.00 | 0.00 | 0.00 | 67 | 1019.9 |
| 20260503110332 | 30 | 43 | 0.0 | 0.0 | 0.00 | 0.00 | 0.00 | 98 | 1019.4 |
| 20260503100258 | 28 | 1 | 0.0 | 0.0 | 0.00 | 0.00 | 0.00 | 97 | 1019.0 |
| 20260503090224 | 29 | 1 | 0.0 | 0.0 | 0.00 | 0.00 | 0.00 | 95 | 1018.7 |
| 20260503081156 | 31 | 1 | 0.0 | 0.0 | 0.00 | 0.00 | 0.00 | 93 | 1018.7 |
| 20260503080652 | 31 | 1 | 0.0 | 0.0 | 0.00 | 0.00 | 0.00 | 93 | 1018.7 |
| 20260503080149 | 31 | 1 | 0.0 | 0.0 | 0.00 | 0.00 | 0.00 | 92 | 1018.7 |
| 20260503072626 | 33 | 11 | 0.0 | 0.0 | 0.00 | 0.00 | 0.00 | 89 | 1018.4 |
| 20260503072123 | 33 | 11 | 0.0 | 0.0 | 0.00 | 0.00 | 0.00 | 89 | 1018.4 |
| 20260503071620 | 33 | 11 | 0.0 | 0.0 | 0.00 | 0.00 | 0.00 | 88 | 1018.5 |
| 20260503071116 | 34 | 11 | 0.0 | 0.0 | 0.00 | 0.00 | 0.00 | 87 | 1018.5 |
| 20260503070614 | 34 | 11 | 0.0 | 0.0 | 0.00 | 0.00 | 0.00 | 86 | 1018.4 |
| 20260503070112 | 35 | 11 | 0.0 | 0.0 | 0.00 | 0.00 | 0.00 | 85 | 1018.3 |
| 20260503055032 | 36 | 24 | 0.0 | 0.0 | 0.00 | 0.00 | 0.00 | 84 | 1018.5 |
| 20260503054528 | 36 | 20 | 0.0 | 0.0 | 0.00 | 0.00 | 0.00 | 85 | 1018.6 |
| 20260503054025 | 36 | 21 | 0.0 | 0.0 | 0.00 | 0.00 | 0.00 | 87 | 1018.5 |
| 20260503053523 | 36 | 24 | 0.0 | 0.0 | 0.00 | 0.00 | 0.00 | 88 | 1018.7 |
| 20260503053021 | 35 | 6 | 0.0 | 0.0 | 0.00 | 0.00 | 0.00 | 88 | 1018.6 |
| 20260503052517 | 35 | 6 | 0.0 | 0.0 | 0.00 | 0.00 | 0.00 | 88 | 1018.9 |
| 20260503052014 | 35 | 6 | 0.0 | 0.0 | 0.00 | 0.00 | 0.00 | 88 | 1018.8 |
| 20260503051509 | 35 | 6 | 0.0 | 0.0 | 0.00 | 0.00 | 0.00 | 88 | 1018.9 |
| 20260503051007 | 35 | 6 | 0.0 | 0.0 | 0.00 | 0.00 | 0.00 | 89 | 1018.9 |
| 20260503050502 | 35 | 14 | 0.0 | 0.0 | 0.00 | 0.00 | 0.00 | 89 | 1018.7 |
| 20260503050000 | 35 | 357 | 0.0 | 0.0 | 0.00 | 0.00 | 0.00 | 89 | 1018.7 |
| 20260503045457 | 35 | 357 | 0.0 | 0.0 | 0.00 | 0.00 | 0.00 | 89 | 1019.0 |
| 20260503044954 | 35 | 12 | 0.0 | 0.0 | 0.00 | 0.00 | 0.00 | 89 | 1018.8 |
| 20260503044451 | 35 | 12 | 0.0 | 0.0 | 0.00 | 0.00 | 0.00 | 88 | 1018.7 |
| 20260503043949 | 35 | 12 | 0.0 | 0.0 | 0.00 | 0.00 | 0.00 | 88 | 1019.0 |
| 20260503043444 | 35 | 12 | 0.0 | 0.0 | 0.00 | 0.00 | 0.00 | 87 | 1018.8 |
| 20260503042941 | 35 | 9 | 0.0 | 0.0 | 0.00 | 0.00 | 0.00 | 86 | 1018.9 |
| 20260503042438 | 36 | 357 | 0.0 | 0.0 | 0.00 | 0.00 | 0.00 | 85 | 1019.0 |
| 20260503041935 | 35 | 357 | 0.0 | 0.0 | 0.00 | 0.00 | 0.00 | 87 | 1018.8 |
| 20260503041431 | 36 | 7 | 0.0 | 0.0 | 0.00 | 0.00 | 0.00 | 86 | 1018.8 |
| 20260503040928 | 36 | 7 | 0.0 | 0.0 | 0.00 | 0.00 | 0.00 | 85 | 1018.9 |
| 20260503040426 | 36 | 7 | 0.0 | 0.0 | 0.00 | 0.00 | 0.00 | 84 | 1018.9 |
| 20260503035923 | 37 | 7 | 0.0 | 0.0 | 0.00 | 0.01 | 0.01 | 83 | 1019.0 |
| 20260503035420 | 37 | 7 | 0.0 | 0.0 | 0.00 | 0.01 | 0.01 | 81 | 1019.0 |
| 20260503034917 | 37 | 4 | 0.0 | 0.0 | 0.00 | 0.01 | 0.01 | 79 | 1019.0 |
| 20260503034415 | 37 | 347 | 0.0 | 0.0 | 0.00 | 0.01 | 0.01 | 80 | 1019.1 |
| 20260503033912 | 37 | 346 | 0.0 | 0.0 | 0.00 | 0.01 | 0.01 | 79 | 1018.8 |
| 20260503033409 | 37 | 1 | 0.0 | 0.0 | 0.00 | 0.01 | 0.01 | 79 | 1019.0 |
| 20260503032907 | 37 | 1 | 0.0 | 0.0 | 0.00 | 0.01 | 0.01 | 80 | 1018.9 |
| 20260503032406 | 37 | 1 | 0.0 | 0.0 | 0.00 | 0.01 | 0.01 | 80 | 1018.9 |
| 20260503031903 | 37 | 1 | 0.0 | 0.0 | 0.00 | 0.01 | 0.01 | 79 | 1019.0 |
| 20260503031401 | 37 | 1 | 0.0 | 0.0 | 0.00 | 0.01 | 0.01 | 80 | 1019.0 |
| 20260503030856 | 37 | 1 | 0.0 | 0.0 | 0.00 | 0.01 | 0.01 | 80 | 1018.9 |
| 20260503030353 | 37 | 1 | 0.0 | 0.0 | 0.00 | 0.01 | 0.01 | 79 | 1018.9 |
| 20260503025850 | 37 | 1 | 0.0 | 0.0 | 0.00 | 0.01 | 0.01 | 80 | 1018.9 |
| 20260503025347 | 37 | 17 | 0.0 | 0.0 | 0.00 | 0.01 | 0.01 | 80 | 1019.0 |
| 20260503024844 | 37 | 17 | 0.0 | 0.0 | 0.00 | 0.01 | 0.01 | 81 | 1019.0 |
| 20260503024341 | 36 | 19 | 0.0 | 0.0 | 0.00 | 0.01 | 0.01 | 83 | 1019.1 |
| 20260503023837 | 36 | 17 | 0.0 | 0.0 | 0.00 | 0.01 | 0.01 | 83 | 1019.4 |
| 20260503023335 | 37 | 3 | 0.0 | 0.0 | 0.00 | 0.01 | 0.01 | 81 | 1019.2 |
| 20260503022831 | 37 | 3 | 0.0 | 0.0 | 0.00 | 0.01 | 0.01 | 80 | 1019.3 |